GFSNE_700_rhum_117.txt.gz
RH
67 76 81 81 82 100 96 100 98 98 98 99 99 98 99 99 99 99 98 88 89 82 59 55 45 86 88 81 70 55 47 51 53 68 69 68 48 53
67 89 95 87 87 94 96 96 99 100 96 95 98 94 90 87 84 87 84 86 83 74 79 58 58 93 96 78 81 51 41 42 46 51 50 52 49 51
76 76 82 81 83 79 72 77 85 89 86 86 87 87 87 94 94 90 87 79 72 63 60 58 84 100 98 96 88 50 53 54 59 99 62 54 51 19
88 79 73 67 67 75 82 78 70 72 75 74 76 82 81 78 68 60 58 55 57 59 65 99 91 97 94 88 100 59 57 54 57 58 56 56 22 10
78 69 69 71 60 60 64 58 50 48 47 45 45 44 43 43 42 42 42 44 48 57 64 92 95 87 95 85 95 62 61 55 57 52 38 20 10 14
56 56 56 52 49 47 46 46 44 42 42 40 40 40 40 40 40 41 44 46 48 55 97 87 90 100 100 79 91 64 45 34 23 13 11 12 15 14
53 52 49 48 50 49 45 44 43 41 39 36 36 36 37 40 41 43 45 51 59 64 79 96 100 96 100 87 95 65 17 12 13 15 16 16 16 11
49 50 51 51 48 46 43 37 34 34 35 34 44 42 39 40 44 49 54 81 100 94 91 100 100 100 100 100 97 67 14 14 17 19 18 16 12 6
55 53 52 51 46 37 35 35 29 30 34 45 46 47 44 42 48 58 73 94 99 98 87 100 100 100 100 100 92 61 13 15 19 18 14 12 9 5
55 54 50 44 40 37 33 42 31 37 48 49 48 46 46 49 54 74 95 100 100 100 100 99 100 100 98 94 82 34 14 18 18 16 15 11 6 7
56 51 45 42 44 40 44 49 48 55 58 58 54 49 52 55 60 69 94 100 100 100 100 100 100 95 95 86 55 14 17 19 18 18 14 7 6 10
52 47 50 52 49 52 56 56 60 63 61 60 56 53 59 62 63 66 81 100 100 100 100 98 100 100 90 56 14 15 18 20 22 18 8 6 9 12
48 48 56 57 54 57 59 60 63 60 62 60 56 60 67 70 72 79 82 88 97 100 100 100 100 89 33 13 14 18 21 24 23 13 8 10 13 15
68 66 63 61 59 59 61 64 64 63 62 60 64 74 82 93 94 97 95 98 100 100 100 98 57 18 13 16 21 35 43 26 20 14 13 15 18 21
78 73 67 66 63 61 63 61 64 64 62 63 73 84 93 99 97 98 97 98 95 80 52 20 14 14 15 18 41 73 30 29 24 21 22 24 28 34
88 79 71 69 66 62 60 66 67 68 66 69 76 84 94 95 94 76 43 25 17 14 14 17 61 55 21 41 46 34 37 35 33 32 35 41 49 55
91 83 80 76 72 67 68 71 70 72 71 73 81 85 89 94 90 52 18 14 14 15 17 19 20 23 49 78 43 44 46 46 45 47 55 62 64 62
88 81 83 82 78 76 76 73 72 74 76 79 84 87 89 92 84 40 18 16 20 22 23 27 43 76 83 82 53 55 54 54 58 64 63 57 56 66
76 64 63 77 83 82 80 78 78 78 79 83 84 89 90 96 90 33 19 25 40 36 34 53 72 88 85 63 63 63 65 65 61 54 51 51 70 77
85 77 69 69 76 80 79 85 85 86 88 88 90 92 93 96 95 88 66 35 63 73 72 74 95 95 77 68 67 61 52 48 45 44 41 43 57 60
89 70 76 79 83 84 89 92 90 90 91 94 95 95 96 94 97 98 73 49 75 95 95 94 93 88 74 67 71 66 55 45 42 38 36 34 36 71
94 80 92 86 86 87 90 94 94 91 91 93 95 95 96 94 96 98 97 82 83 93 95 94 96 93 93 95 95 93 84 72 56 41 30 29 62 89
84 95 93 91 96 94 93 92 93 95 93 92 94 96 95 93 93 94 98 99 98 51 42 84 95 91 87 82 69 77 78 72 58 41 34 75 93 94

GFSNE_700_rhum_120.txt.gz
RH
100 100 88 63 69 76 88 94 98 99 98 98 98 97 99 97 90 74 67 62 66 84 86 83 76 68 66 78 98 93 79 76 55 52 66 74 87 69
99 80 67 67 82 84 80 84 81 80 78 83 88 84 89 92 92 96 94 91 83 85 88 79 76 79 65 74 73 100 73 79 48 42 45 64 85 66
78 73 69 73 76 76 81 75 71 73 74 73 76 82 79 82 80 81 81 78 74 69 64 61 74 66 71 97 99 85 88 78 58 56 52 56 62 58
78 85 85 85 78 66 64 66 58 55 53 47 45 45 45 47 47 46 45 44 44 46 49 50 66 65 100 100 100 100 85 96 63 62 62 94 89 60
81 77 90 82 70 67 61 52 45 41 43 43 40 40 39 39 40 40 40 40 42 45 49 51 86 100 89 100 96 96 88 90 62 64 65 63 60 56
71 70 66 59 55 50 44 42 44 44 44 41 40 38 35 32 31 34 34 38 43 45 53 58 74 97 100 87 100 97 89 93 64 65 62 56 44 21
62 61 60 53 49 45 45 45 46 44 42 36 34 32 30 32 40 41 36 37 43 50 58 66 88 99 93 100 98 94 97 100 60 39 25 16 12 12
57 54 53 49 49 51 48 46 44 33 29 26 28 29 32 40 46 45 43 42 50 77 83 98 100 97 98 100 100 100 99 100 65 16 14 14 16 16
52 52 52 54 52 48 44 39 32 31 29 31 27 31 45 44 46 44 47 50 60 96 99 99 100 100 99 99 100 100 100 100 66 15 15 17 17 16
55 57 56 52 51 45 41 36 38 33 31 30 39 48 52 49 47 47 50 58 85 100 100 100 98 99 100 100 100 100 100 100 47 14 16 17 14 12
59 57 54 52 46 42 43 46 49 46 43 44 52 53 52 51 48 52 54 64 90 100 100 100 99 99 100 100 97 99 98 85 22 14 16 16 15 12
59 56 55 50 45 38 51 53 52 51 49 52 58 56 55 52 52 57 62 62 82 100 100 100 100 100 100 100 100 99 89 27 13 16 18 31 23 8
59 55 52 50 48 60 59 51 50 48 50 56 62 58 55 53 61 66 71 76 88 93 98 100 100 100 100 100 98 56 15 13 16 33 26 41 9 5
64 65 59 61 66 67 58 53 51 50 59 64 63 59 59 62 73 74 79 90 92 96 99 100 100 100 99 90 27 12 13 18 30 26 46 15 7 9
70 80 78 82 76 69 63 60 58 59 68 70 64 65 66 75 81 83 89 89 85 92 97 98 99 92 53 17 12 14 28 48 68 71 17 10 11 13
94 84 88 84 78 73 72 70 64 68 74 72 71 72 78 81 83 85 87 77 51 34 30 26 23 15 15 15 14 15 34 63 72 26 20 16 18 20
90 85 91 88 83 83 81 76 72 76 76 75 78 78 82 84 84 86 86 78 48 23 16 14 14 16 52 57 28 41 49 56 35 32 28 26 30 35
94 92 90 89 77 73 84 78 78 77 81 82 84 83 83 84 85 89 89 78 50 25 22 18 19 19 20 23 38 69 81 60 44 42 42 43 48 59
99 97 97 86 74 67 60 67 78 82 86 89 88 86 84 85 85 90 94 82 43 26 26 42 40 34 40 69 83 87 85 65 56 53 59 66 68 64
99 94 89 90 83 70 66 72 82 87 88 91 91 91 90 89 89 92 96 94 88 59 36 56 43 54 59 81 96 95 94 79 70 69 68 63 58 55
85 85 93 92 82 75 83 97 96 94 92 93 92 92 92 92 92 94 94 96 95 90 63 65 79 82 85 89 93 96 95 93 71 55 49 47 46 44
70 75 81 94 94 88 94 98 97 94 93 93 93 93 94 94 94 97 95 95 96 96 76 60 81 91 95 96 96 94 92 87 81 89 70 55 71 71
62 66 73 83 100 100 99 98 100 99 97 93 93 94 95 96 97 98 98 95 96 94 96 98 96 90 91 95 95 96 96 96 94 95 93 95 94 91

GFSNE_700_rhum_123.txt.gz
RH
59 85 92 96 97 87 62 69 82 83 83 81 75 79 85 82 84 76 74 77 84 87 89 88 87 90 88 79 78 92 66 100 86 85 84 60 83 89
80 92 95 97 93 73 75 77 71 71 67 62 68 67 69 72 76 78 82 86 88 88 86 83 80 72 65 80 73 71 95 93 99 91 90 61 61 90
98 96 100 86 75 75 78 74 71 61 60 57 49 44 48 50 47 47 49 47 48 49 49 51 52 53 54 50 89 69 99 96 74 96 94 65 99 100
92 100 94 89 87 90 87 76 64 70 57 43 39 35 39 40 40 40 38 38 39 41 43 45 47 48 48 61 57 98 100 100 93 93 91 72 99 100
96 88 88 83 79 87 84 71 63 54 46 40 39 40 39 37 36 34 31 30 32 34 37 41 48 52 56 73 100 91 90 99 78 94 91 75 76 100
78 78 74 70 70 67 59 55 49 45 42 42 42 39 34 32 30 29 28 32 41 44 45 45 54 60 77 97 95 94 86 98 97 95 98 72 75 78
74 68 67 65 60 58 50 47 45 43 42 40 38 32 26 24 24 27 27 34 37 41 44 48 61 88 79 100 100 96 99 96 98 90 98 61 64 67
68 52 48 50 51 48 45 46 46 44 41 41 32 25 28 25 26 32 45 42 45 44 47 62 84 98 100 92 99 99 98 99 100 94 95 59 27 17
43 42 43 48 47 46 48 49 46 45 40 32 28 29 27 27 34 44 46 45 45 47 51 74 100 99 99 98 98 98 96 98 100 98 98 74 17 15
47 46 47 51 50 53 53 49 45 40 37 37 36 36 36 40 43 47 45 46 44 49 63 88 99 100 99 99 98 98 98 100 99 99 100 65 16 15
55 52 52 54 58 56 50 48 42 36 39 45 46 46 51 51 48 48 49 43 44 54 65 90 100 100 99 97 98 97 99 93 99 100 100 35 14 15
60 60 63 62 58 55 52 47 41 42 52 49 50 49 50 54 51 53 49 50 51 57 69 83 100 100 100 99 99 98 98 99 99 99 64 15 15 16
69 68 66 65 62 57 51 45 47 52 55 51 46 44 52 56 55 54 52 62 62 64 72 87 96 100 100 100 100 96 95 98 95 48 14 14 17 30
72 70 67 66 62 58 56 53 57 60 55 55 49 44 50 60 58 60 62 68 74 76 81 94 100 100 100 100 100 100 96 55 15 13 16 35 36 42
75 70 68 66 64 65 70 77 71 66 62 60 55 49 56 62 63 65 66 73 80 80 72 60 74 96 98 99 98 87 31 12 12 20 29 35 46 68
76 74 78 77 76 72 80 85 79 71 71 68 61 64 64 60 68 71 73 78 82 80 66 38 26 25 28 33 21 13 12 12 18 42 57 66 74 26
87 85 82 89 89 84 83 83 82 79 77 74 67 72 66 67 72 74 78 81 81 80 65 40 22 15 14 14 22 30 18 16 25 54 67 54 25 15
87 90 99 98 90 91 87 88 80 67 71 66 70 73 72 74 76 77 80 83 80 85 77 50 24 20 17 16 19 39 44 56 60 72 82 38 28 23
88 96 97 94 94 95 90 87 68 61 51 56 71 74 80 84 84 82 87 85 85 87 83 50 24 30 31 22 22 26 28 58 75 87 80 49 38 37
80 93 93 91 93 95 91 73 72 60 59 65 74 81 89 92 90 93 94 91 91 90 90 86 51 34 43 47 65 67 70 80 87 92 89 74 56 56
98 98 91 86 89 91 88 85 83 77 76 86 89 92 94 93 93 96 96 96 95 94 94 97 91 74 48 66 79 90 89 84 91 95 95 92 92 78
95 91 86 81 81 88 93 95 89 89 90 93 94 92 92 93 94 95 96 96 95 95 95 96 96 90 68 70 92 96 96 96 91 96 96 96 92 86
88 88 82 76 78 79 78 81 92 94 96 96 95 95 94 92 94 95 96 96 96 96 96 97 97 95 94 95 93 91 96 96 98 95 96 95 94 93

GFSNE_700_rhum_126.txt.gz
RH
46 48 46 50 62 80 92 94 74 58 69 72 70 66 60 57 53 66 69 67 70 58 58 60 68 78 82 84 76 70 67 67 86 77 94 92 82 77
44 46 45 52 78 89 97 93 71 67 67 60 56 58 55 47 43 44 43 39 40 44 44 43 49 48 57 63 57 56 58 59 92 88 98 89 94 93
46 52 53 52 77 85 93 76 74 76 77 65 66 56 42 38 37 38 38 37 39 38 40 39 40 41 45 47 50 50 50 100 94 99 89 87 96 87
66 92 84 88 80 95 90 80 81 82 83 72 57 38 36 38 38 38 35 34 32 29 29 28 33 38 41 44 50 54 69 71 96 86 94 87 95 87
84 75 75 89 91 96 82 76 72 68 57 49 40 40 37 37 37 33 27 26 25 24 23 27 35 44 50 52 54 70 94 100 98 84 99 98 88 93
94 95 99 100 90 82 75 67 64 54 51 46 41 40 39 36 35 27 23 19 19 19 28 34 36 40 44 53 72 95 93 99 90 95 92 98 86 91
86 82 86 89 78 73 72 61 56 52 47 40 42 37 38 34 26 22 22 21 21 33 39 38 38 40 47 54 91 95 97 98 99 100 99 99 90 87
84 89 87 76 73 57 54 60 58 51 45 43 42 38 35 27 24 24 23 22 29 40 38 38 42 49 62 75 100 99 95 93 96 99 98 91 89 90
86 75 70 60 50 50 53 50 52 47 42 44 42 35 30 28 30 32 30 35 39 38 36 40 40 47 63 99 100 100 100 98 89 94 98 97 92 99
58 54 51 50 50 53 54 53 51 53 52 48 40 34 31 33 37 41 41 39 38 36 35 39 43 50 69 90 100 100 98 98 92 95 98 97 96 98
70 67 61 57 57 54 58 60 58 55 50 44 40 40 42 41 38 38 36 33 36 42 40 46 50 53 61 93 91 100 97 88 90 95 85 85 94 98
82 78 70 65 64 64 63 63 58 55 49 44 41 48 46 41 39 40 36 44 50 48 50 55 58 57 60 71 85 100 98 100 99 94 86 94 99 94
93 92 82 73 69 66 65 61 57 52 47 43 46 54 50 49 47 44 48 52 51 52 63 62 65 66 70 70 81 96 99 96 90 88 92 96 96 33
97 99 88 81 75 71 67 63 62 57 57 65 68 62 58 56 52 47 54 60 56 60 63 70 68 68 71 77 87 96 95 94 98 94 84 51 17 13
92 95 91 81 77 73 72 72 67 64 64 70 69 67 66 65 59 54 59 60 61 66 69 73 75 66 59 62 77 96 91 91 87 34 13 12 14 36
95 93 88 84 79 78 79 77 71 74 78 81 78 77 75 72 65 67 67 68 63 69 72 74 75 71 51 36 30 27 31 27 16 12 12 27 50 64
93 89 85 83 81 82 82 78 82 85 84 85 80 78 78 76 68 70 70 70 72 70 73 72 76 74 61 40 20 15 16 20 14 13 14 25 70 70
92 87 85 88 86 85 86 97 96 90 87 86 83 65 64 73 69 72 73 78 74 75 71 74 79 81 70 42 39 20 16 37 43 27 27 33 64 82
85 92 95 93 92 96 100 100 96 96 92 91 76 62 62 71 69 76 84 83 83 80 80 82 82 83 75 45 38 36 24 20 23 26 60 82 87 94
92 97 97 95 94 96 97 94 93 92 92 91 84 70 73 72 75 85 87 90 91 88 86 89 88 85 84 84 49 41 66 57 55 61 76 89 93 95
97 96 97 97 95 94 97 96 88 86 89 91 98 89 80 83 85 86 89 91 91 89 89 92 90 89 84 86 86 55 61 74 86 92 94 95 95 96
97 96 96 96 92 94 93 87 85 76 83 92 100 96 89 84 86 88 91 94 92 92 95 95 94 91 88 89 92 90 84 88 89 92 93 95 95 95
97 96 97 96 95 89 85 83 74 72 77 86 100 98 90 90 92 91 93 94 92 92 93 93 94 94 90 90 92 94 95 96 95 92 95 95 94 95

GFSNE_700_rhum_129.txt.gz
RH
42 49 52 52 51 49 48 53 61 74 85 68 59 57 51 47 53 50 41 34 34 35 37 39 40 40 42 42 43 41 42 45 43 46 43 64 67 82
42 43 46 47 47 46 48 59 62 81 86 73 67 63 53 56 54 38 32 33 35 36 35 37 36 34 32 36 35 40 41 44 50 52 81 83 95 83
41 42 45 47 48 49 55 74 87 75 84 77 71 72 70 60 41 36 34 34 33 32 28 27 26 24 27 34 38 40 40 46 49 57 64 95 68 86
42 46 52 60 63 68 69 84 88 83 79 78 78 78 62 44 41 39 35 32 31 24 22 22 22 23 24 30 37 39 48 50 61 63 89 100 76 94
56 57 73 75 93 96 94 97 99 100 94 76 58 52 44 38 38 34 33 34 28 22 22 19 20 25 34 35 41 43 52 58 74 100 100 99 80 94
77 89 84 91 89 70 89 100 100 98 77 66 55 50 42 41 41 37 34 29 23 22 23 21 20 30 33 33 39 44 79 100 100 100 100 94 92 79
99 94 96 96 78 100 98 100 97 77 76 59 50 45 44 45 38 35 30 27 27 25 24 22 28 32 31 34 36 48 58 98 97 100 100 100 100 95
99 99 99 99 100 94 90 86 79 62 54 56 44 45 46 44 37 31 26 26 31 30 32 34 33 30 34 38 40 50 96 100 100 99 97 97 97 95
100 100 99 100 97 87 77 72 55 53 52 49 53 49 47 42 34 29 28 29 33 36 35 35 32 30 29 39 46 65 89 96 99 100 99 90 86 94
99 98 100 92 80 73 65 56 58 52 53 53 50 48 45 40 34 31 40 38 32 31 33 37 35 38 38 46 48 56 90 95 99 98 96 95 95 95
98 97 83 65 61 59 60 61 60 62 61 57 54 51 45 42 37 41 42 38 37 36 37 38 44 46 48 51 54 61 89 95 99 96 91 98 100 95
81 77 76 78 73 71 70 73 72 68 61 58 56 51 45 41 41 50 46 45 42 38 40 41 48 50 53 58 59 66 80 88 98 97 96 96 98 88
96 84 89 94 95 92 85 78 72 68 68 64 57 54 51 56 60 58 54 51 48 44 45 44 52 55 58 61 64 73 82 91 91 95 94 87 86 93
90 89 93 93 95 98 96 91 76 73 68 61 58 59 58 68 65 61 62 59 54 48 53 58 60 61 62 65 63 72 81 88 89 87 90 90 95 95
64 77 89 91 97 100 97 85 78 74 70 68 66 63 68 79 73 70 69 67 59 53 59 54 66 67 68 70 62 47 55 74 87 89 87 84 49 20
98 99 94 98 90 86 83 88 82 80 79 79 78 79 79 83 84 80 78 74 68 69 62 67 68 73 72 70 69 52 37 24 26 28 31 19 13 14
100 99 100 100 98 96 95 90 86 86 93 89 93 86 82 82 82 78 81 77 70 68 73 72 73 75 77 74 76 66 46 21 16 18 15 13 12 32
100 98 99 99 98 98 98 97 92 95 97 97 97 88 83 81 80 66 60 66 68 73 74 73 78 74 76 78 71 64 55 44 22 21 44 20 16 22
96 98 97 97 98 98 98 97 96 93 99 100 93 81 80 79 75 61 56 71 73 81 88 85 86 83 82 85 77 68 59 48 40 23 20 28 45 56
90 98 98 97 97 98 98 98 94 90 94 99 96 93 91 88 81 68 64 79 83 89 92 91 88 84 82 85 85 84 79 63 51 60 50 50 54 56
98 98 97 98 98 98 97 96 94 96 98 97 96 88 93 90 93 85 79 88 94 97 94 93 88 87 84 85 88 88 83 82 65 60 69 79 87 93
97 97 97 97 98 97 97 97 97 97 91 83 76 77 77 93 96 96 92 92 92 95 98 100 95 89 88 88 88 87 88 86 85 84 82 83 83 83
97 96 97 96 96 96 96 96 95 94 91 81 73 69 73 89 100 96 96 100 100 99 97 96 95 92 88 86 85 88 88 90 89 87 89 88 86 81

GFSNE_700_rhum_132.txt.gz
RH
42 41 44 52 57 57 56 55 54 58 62 63 70 80 77 69 59 51 48 54 38 35 34 32 32 31 34 37 32 30 29 31 35 34 36 39 43 61
44 45 43 46 52 56 55 55 54 61 76 74 69 78 88 77 67 65 63 45 33 33 32 32 28 26 26 26 26 25 31 34 38 41 42 46 55 61
42 44 46 48 50 55 54 55 58 70 93 95 84 85 82 78 68 69 64 35 30 30 32 30 24 21 21 22 22 28 28 30 35 46 48 52 62 85
37 40 43 46 49 53 54 60 78 86 90 99 97 94 94 78 68 59 39 30 34 32 31 28 22 21 19 18 25 32 33 35 35 50 56 75 94 81
42 44 45 48 51 55 72 81 86 93 98 98 98 88 98 81 48 36 30 33 32 31 28 25 22 22 21 20 30 32 32 35 52 52 74 100 100 81
54 54 56 58 60 72 82 86 94 95 92 97 98 98 96 58 43 34 31 33 32 29 25 25 25 24 23 30 32 30 35 38 51 99 88 99 98 85
59 68 69 74 68 94 87 79 97 98 93 100 99 91 86 60 44 34 35 36 31 27 25 26 29 30 32 31 28 29 36 46 64 77 88 88 99 100
74 73 83 98 98 98 89 100 100 100 99 100 99 95 71 52 41 38 37 33 29 27 32 35 34 33 31 30 29 31 39 50 76 90 100 100 100 93
99 100 100 100 100 100 100 100 100 100 100 90 95 74 57 49 40 39 38 34 32 32 36 36 33 32 32 31 34 38 47 57 76 94 88 91 92 99
100 99 98 100 100 100 100 100 100 99 87 90 75 60 52 44 44 45 38 35 35 40 38 38 37 34 34 35 38 43 49 59 86 100 100 100 99 99
100 100 100 100 99 100 100 100 90 81 82 71 62 56 51 48 49 43 39 36 40 44 42 43 40 36 36 42 46 48 52 60 70 92 97 98 98 94
100 100 100 99 100 98 90 85 71 70 67 66 60 55 53 53 49 43 40 41 42 46 47 46 42 39 43 47 50 53 54 60 68 75 74 95 97 96
92 81 84 90 83 80 87 84 83 84 90 84 70 63 59 57 52 48 44 46 51 53 54 51 45 44 47 50 53 58 60 67 66 72 79 90 99 96
93 98 94 100 100 93 88 84 89 94 92 91 76 71 67 60 55 55 55 62 63 60 59 57 50 52 56 59 62 62 60 61 72 83 78 86 87 90
85 98 100 100 99 100 100 100 99 99 98 91 85 76 71 66 64 60 59 69 69 66 67 65 57 61 64 66 68 70 65 57 48 59 72 81 86 86
98 100 99 96 99 100 99 100 100 99 98 99 93 81 74 71 72 71 73 75 76 76 76 73 70 70 65 65 68 71 70 64 56 45 32 38 39 39
98 98 99 99 99 99 98 99 99 99 94 97 92 87 87 82 80 77 76 80 79 76 79 78 77 75 72 70 70 70 72 72 65 56 29 21 18 15
90 93 98 100 98 98 97 98 98 98 98 97 97 95 95 90 88 83 80 77 76 64 70 77 84 82 78 78 76 72 68 65 61 58 46 21 32 29
98 96 97 100 100 99 99 99 98 98 98 96 96 97 97 96 92 82 78 80 72 66 70 82 92 91 87 88 85 82 76 74 70 58 51 40 22 32
98 98 96 100 100 99 98 98 98 97 97 97 97 96 97 96 91 85 80 84 78 70 78 92 98 96 97 93 89 86 82 81 81 76 57 60 54 36
98 98 99 98 98 98 97 97 97 98 97 97 96 96 96 96 93 84 80 85 87 80 89 100 100 99 98 95 94 90 86 86 85 82 78 64 62 71
96 97 97 98 97 98 97 97 97 98 96 96 96 97 95 92 86 80 76 85 96 93 94 100 99 98 99 96 94 96 94 86 84 84 85 83 79 76
96 96 96 97 97 97 97 97 97 97 97 97 96 95 93 88 75 78 81 98 99 99 99 100 98 96 97 95 92 94 94 93 88 85 90 88 85 83